DW5398 Weather Reports


Display with metric or nautical units.
time (UTC)temp
F
wind
direction
speed
MPH
gust
MPH
rain 1hr
in
rain 24hr
in
rain mn
in
humidity
%
barometer
mb
20190323091803 51 357 3.0 7.0 0.00 0.03 0.01 84 1031.4
20190323091305 51 17 3.0 5.0 0.00 0.03 0.01 85 1031.4
20190323090805 51 54 2.0 5.0 0.00 0.03 0.01 85 1031.4
20190323090304 51 27 3.0 8.0 0.00 0.03 0.01 86 1031.4
20190323084804 50 31 3.0 8.0 0.00 0.03 0.01 87 1031.2
20190323084304 50 357 4.0 7.0 0.00 0.03 0.01 88 1031.1
20190323083804 50 50 3.0 5.0 0.00 0.03 0.01 90 1031.0
20190323083304 50 70 2.0 7.0 0.00 0.03 0.01 91 1031.0
20190323081804 49 45 3.0 3.0 0.00 0.03 0.01 92 1030.9
20190323081304 49 28 1.0 2.0 0.00 0.03 0.01 93 1030.8
20190323080804 49 67 1.0 2.0 0.00 0.03 0.01 92 1030.7
20190323080305 49 37 1.0 3.0 0.00 0.03 0.01 93 1030.7
20190323074804 49 334 1.0 2.0 0.00 0.03 0.01 94 1030.7
20190323074304 48 331 0.0 2.0 0.00 0.03 0.01 94 1030.6
20190323073805 48 351 2.0 3.0 0.00 0.03 0.01 94 1030.5
20190323073304 48 4 2.0 3.0 0.00 0.03 0.01 94 1030.5
20190323071805 48 349 0.0 0.0 0.00 0.03 0.01 94 1030.4
20190323071304 48 349 0.0 0.0 0.00 0.03 0.01 94 1030.3
20190323070804 48 349 0.0 0.0 0.00 0.03 0.01 94 1030.3
20190323070305 48 349 0.0 2.0 0.00 0.03 0.01 94 1030.3
20190323064804 48 349 0.0 0.0 0.00 0.03 0.01 94 1030.2
20190323064304 48 349 0.0 0.0 0.00 0.03 0.01 94 1030.0
20190323063804 48 349 0.0 0.0 0.00 0.03 0.01 94 1030.0
20190323063304 48 349 0.0 1.0 0.00 0.03 0.01 94 1029.9
20190323061804 48 350 0.0 1.0 0.00 0.03 0.01 94 1029.8
20190323061304 48 350 0.0 0.0 0.00 0.03 0.01 94 1029.8
20190323060804 48 350 0.0 0.0 0.00 0.03 0.01 94 1029.7
20190323060304 48 350 0.0 2.0 0.00 0.03 0.01 94 1029.6
20190323054804 48 350 0.0 2.0 0.00 0.04 0.01 94 1029.5
20190323054304 48 350 1.0 1.0 0.00 0.04 0.01 94 1029.6
20190323053804 48 348 1.0 2.0 0.00 0.04 0.01 94 1029.6
20190323053305 48 325 1.0 3.0 0.00 0.04 0.01 94 1029.5
20190323051805 48 332 1.0 2.0 0.00 0.04 0.01 93 1029.5
20190323051304 48 333 1.0 3.0 0.00 0.04 0.01 93 1029.4
20190323050804 48 320 0.0 0.0 0.00 0.04 0.01 93 1029.3
20190323050304 48 311 0.0 3.0 0.00 0.04 0.01 93 1029.2
20190323044804 48 274 1.0 2.0 0.00 0.04 0.01 93 1029.1
20190323044305 48 264 0.0 2.0 0.00 0.04 0.01 93 1029.0
20190323043804 48 262 1.0 2.0 0.00 0.04 0.01 93 1028.9
20190323043304 48 261 1.0 3.0 0.00 0.04 0.01 94 1028.8
20190323041804 48 288 1.0 2.0 0.00 0.04 0.01 94 1028.9
20190323041305 48 288 1.0 2.0 0.00 0.04 0.01 94 1028.9
20190323040804 48 257 1.0 1.0 0.00 0.04 0.01 94 1028.9
20190323040304 48 257 0.0 2.0 0.00 0.04 0.01 94 1028.9
20190323034804 47 256 1.0 2.0 0.00 0.04 0.01 94 1028.8
20190323034304 47 256 1.0 2.0 0.00 0.04 0.01 94 1028.8
20190323033804 47 254 1.0 2.0 0.00 0.04 0.01 94 1028.8
20190323033304 47 254 0.0 2.0 0.00 0.04 0.01 94 1028.7
20190323031804 47 263 1.0 3.0 0.00 0.04 0.01 95 1028.6
20190323031305 47 255 1.0 3.0 0.01 0.04 0.01 95 1028.6
20190323030805 47 271 1.0 2.0 0.01 0.04 0.01 95 1028.6
20190323030304 47 250 0.0 3.0 0.01 0.04 0.01 95 1028.5
20190323024804 47 265 1.0 2.0 0.01 0.04 0.01 95 1028.3
20190323024304 47 260 1.0 3.0 0.01 0.04 0.01 95 1028.3
20190323023804 47 260 1.0 3.0 0.01 0.04 0.01 95 1028.3
20190323023304 46 254 1.0 3.0 0.01 0.04 0.01 95 1028.2
20190323021804 46 211 0.0 0.0 0.01 0.04 0.01 95 1028.3
20190323021304 46 211 0.0 0.0 0.00 0.03 0.00 95 1028.3
20190323020804 46 211 0.0 2.0 0.00 0.03 0.00 95 1028.3
20190323020304 46 211 1.0 3.0 0.00 0.03 0.00 95 1028.2
20190323014804 46 211 1.0 2.0 0.00 0.03 0.00 95 1028.1
20190323014305 46 211 1.0 2.0 0.00 0.03 0.00 95 1028.1
20190323013805 46 211 1.0 1.0 0.00 0.03 0.00 95 1028.1
20190323013304 46 211 1.0 3.0 0.00 0.03 0.00 94 1028.1
20190323011804 46 224 1.0 3.0 0.00 0.03 0.00 94 1028.2
20190323011305 46 238 2.0 3.0 0.00 0.03 0.00 94 1028.2
20190323010804 46 228 1.0 2.0 0.00 0.03 0.00 94 1028.1
20190323010305 46 238 1.0 3.0 0.00 0.03 0.00 94 1028.1
20190323004804 46 227 1.0 2.0 0.00 0.03 0.00 93 1027.9
20190323004304 46 227 1.0 3.0 0.00 0.03 0.00 93 1027.9
20190323003804 46 223 1.0 3.0 0.00 0.04 0.00 92 1027.9
20190323003304 46 237 1.0 3.0 0.00 0.04 0.00 92 1027.9
20190323001805 46 222 1.0 3.0 0.00 0.04 0.00 92 1027.8
20190323001304 46 214 1.0 3.0 0.00 0.04 0.00 91 1027.8
20190323000824 47 210 1.0 2.0 0.00 0.04 0.00 91 1027.8
20190323000305 47 210 1.0 5.0 0.00 0.04 0.00 92 1027.6
20190322234805 47 222 1.0 5.0 0.00 0.04 0.04 91 1027.5
20190322234304 47 211 3.0 3.0 0.00 0.04 0.04 91 1027.5
20190322233804 47 222 1.0 3.0 0.00 0.04 0.04 90 1027.6
20190322233304 47 229 2.0 3.0 0.00 0.04 0.04 89 1027.6
20190322231805 48 224 1.0 3.0 0.00 0.04 0.04 88 1027.7
20190322231304 48 226 0.0 2.0 0.00 0.04 0.04 88 1027.6
20190322230804 49 226 0.0 2.0 0.00 0.04 0.04 88 1027.7
20190322230304 49 226 1.0 3.0 0.00 0.04 0.04 88 1027.6
20190322224804 49 212 2.0 3.0 0.00 0.04 0.04 88 1027.8
20190322224305 49 206 2.0 3.0 0.00 0.04 0.04 88 1027.7
20190322223805 49 224 1.0 2.0 0.00 0.04 0.04 88 1027.8
20190322223305 49 235 2.0 3.0 0.00 0.04 0.04 88 1027.8
20190322221804 49 208 2.0 3.0 0.00 0.04 0.04 88 1027.7
20190322221305 49 245 1.0 3.0 0.00 0.04 0.04 88 1027.7
20190322220805 49 219 1.0 3.0 0.00 0.04 0.04 88 1027.6
20190322220304 49 233 2.0 5.0 0.00 0.04 0.04 87 1027.6
20190322214804 50 236 1.0 3.0 0.00 0.04 0.04 87 1027.6
20190322214304 50 246 1.0 3.0 0.00 0.04 0.04 87 1027.6
20190322213804 50 216 1.0 3.0 0.00 0.04 0.04 87 1027.6
20190322213305 50 226 3.0 5.0 0.00 0.04 0.04 87 1027.6
20190322211804 50 236 2.0 3.0 0.00 0.04 0.04 86 1027.6
20190322211305 50 227 1.0 3.0 0.01 0.04 0.04 86 1027.6
20190322210804 50 204 1.0 3.0 0.01 0.04 0.04 86 1027.5
20190322210304 50 212 2.0 3.0 0.01 0.04 0.04 86 1027.6
20190322204804 50 238 2.0 3.0 0.01 0.04 0.04 86 1027.6
20190322204304 50 226 1.0 3.0 0.01 0.04 0.04 86 1027.5
20190322203805 50 260 1.0 2.0 0.01 0.05 0.04 86 1027.6
20190322203305 50 225 1.0 3.0 0.01 0.05 0.04 85 1027.5
20190322201805 50 227 1.0 3.0 0.01 0.05 0.04 85 1027.5
20190322201305 50 225 1.0 3.0 0.00 0.04 0.03 85 1027.5
20190322200804 50 240 1.0 2.0 0.00 0.04 0.03 85 1027.6
20190322200304 50 225 0.0 3.0 0.00 0.04 0.03 85 1027.5
20190322194805 50 227 1.0 2.0 0.00 0.04 0.03 85 1027.4
20190322194304 50 227 1.0 2.0 0.00 0.04 0.03 85 1027.4
20190322193804 50 227 1.0 2.0 0.00 0.04 0.03 85 1027.4
20190322193304 50 227 1.0 3.0 0.00 0.04 0.03 85 1027.4
20190322191804 50 248 1.0 2.0 0.00 0.04 0.03 84 1027.3
20190322191304 50 248 0.0 1.0 0.00 0.04 0.03 84 1027.4
20190322190804 50 248 1.0 2.0 0.00 0.04 0.03 84 1027.4
20190322190304 50 248 1.0 3.0 0.00 0.04 0.03 84 1027.4
20190322184805 50 276 1.0 2.0 0.00 0.04 0.03 85 1027.4
20190322184304 50 266 1.0 3.0 0.00 0.04 0.03 85 1027.4
20190322183804 50 267 3.0 7.0 0.00 0.04 0.03 85 1027.3
20190322183304 50 271 2.0 7.0 0.00 0.04 0.03 85 1027.2
20190322181804 50 246 2.0 5.0 0.00 0.04 0.03 85 1027.1
20190322181304 50 262 2.0 3.0 0.00 0.04 0.03 85 1027.0
20190322180804 50 283 3.0 7.0 0.00 0.04 0.03 85 1027.0
20190322180304 50 278 2.0 6.0 0.00 0.04 0.03 85 1026.8
20190322174804 50 271 1.0 3.0 0.00 0.04 0.03 85 1026.9
20190322174305 50 228 3.0 5.0 0.00 0.04 0.03 84 1026.8
20190322173804 51 250 2.0 3.0 0.00 0.04 0.03 85 1026.8
20190322173304 51 244 2.0 10.0 0.00 0.04 0.03 85 1026.7
20190322171804 51 262 2.0 7.0 0.00 0.05 0.03 85 1026.6
20190322171304 51 243 3.0 7.0 0.00 0.05 0.03 85 1026.6
20190322170804 51 242 5.0 10.0 0.00 0.05 0.03 84 1026.6
20190322170305 51 255 2.0 7.0 0.00 0.05 0.03 84 1026.5
20190322164804 51 224 3.0 5.0 0.00 0.05 0.03 84 1026.5
20190322164304 51 243 2.0 6.0 0.00 0.05 0.03 84 1026.6
20190322163804 51 260 2.0 6.0 0.01 0.05 0.03 84 1026.4
20190322163304 51 272 4.0 9.0 0.01 0.05 0.03 83 1026.4
20190322161804 51 249 4.0 7.0 0.01 0.05 0.03 83 1026.4
20190322161304 51 245 2.0 8.0 0.01 0.05 0.03 83 1026.4
20190322160805 51 225 2.0 8.0 0.01 0.05 0.03 83 1026.5
20190322160304 51 241 2.0 5.0 0.01 0.05 0.03 83 1026.5
20190322154805 51 259 4.0 7.0 0.01 0.05 0.03 82 1026.5
20190322154304 51 261 2.0 5.0 0.01 0.05 0.03 82 1026.6
20190322153804 51 248 2.0 5.0 0.00 0.04 0.02 83 1026.6
20190322153305 51 233 2.0 6.0 0.00 0.04 0.02 83 1026.6
20190322151804 51 211 2.0 6.0 0.00 0.04 0.02 83 1026.7
20190322151305 51 216 2.0 7.0 0.00 0.05 0.02 83 1026.6
20190322150805 51 214 4.0 6.0 0.00 0.05 0.02 83 1026.6
20190322150304 51 220 3.0 6.0 0.00 0.05 0.02 83 1026.7
20190322144804 51 245 4.0 8.0 0.00 0.05 0.02 83 1026.9
20190322144304 51 262 3.0 7.0 0.00 0.05 0.02 83 1027.0
20190322143805 51 235 3.0 6.0 0.00 0.05 0.02 84 1027.0
20190322143304 51 239 3.0 6.0 0.00 0.05 0.02 84 1027.0
20190322141805 51 222 2.0 6.0 0.00 0.05 0.02 85 1027.0
20190322141304 51 247 4.0 8.0 0.00 0.05 0.02 85 1027.0
20190322140804 51 256 3.0 7.0 0.00 0.05 0.02 85 1027.0
20190322140304 51 228 4.0 7.0 0.00 0.05 0.02 85 1027.1
20190322134804 50 261 3.0 6.0 0.00 0.05 0.02 85 1027.1
20190322134304 50 230 2.0 7.0 0.00 0.05 0.02 86 1027.0
20190322133804 50 213 3.0 7.0 0.00 0.05 0.02 86 1027.1
20190322133304 50 203 3.0 7.0 0.00 0.05 0.02 86 1027.2
20190322131804 50 206 3.0 5.0 0.00 0.05 0.02 86 1027.3
20190322131304 50 209 5.0 7.0 0.00 0.05 0.02 86 1027.4
20190322130804 50 197 4.0 8.0 0.00 0.06 0.02 86 1027.5
20190322130304 50 209 2.0 7.0 0.00 0.06 0.02 86 1027.6
20190322124805 50 231 1.0 6.0 0.00 0.06 0.02 86 1027.8
20190322124304 50 255 4.0 7.0 0.00 0.06 0.02 86 1027.7
20190322123804 50 238 2.0 6.0 0.00 0.06 0.02 86 1027.7
20190322123305 50 212 3.0 7.0 0.00 0.06 0.02 87 1027.7
20190322121804 50 219 3.0 7.0 0.00 0.06 0.02 86 1027.8
20190322121304 50 221 3.0 6.0 0.00 0.06 0.02 86 1027.8
20190322120804 50 230 2.0 6.0 0.00 0.06 0.02 86 1027.9
20190322120304 50 205 3.0 7.0 0.00 0.06 0.02 86 1027.8
20190322114804 50 212 3.0 6.0 0.01 0.06 0.02 86 1027.9
20190322114304 50 167 2.0 7.0 0.01 0.06 0.02 87 1027.9
20190322113804 49 214 2.0 6.0 0.01 0.06 0.02 87 1027.9
20190322113304 49 213 4.0 7.0 0.01 0.06 0.02 87 1028.0
20190322111804 49 196 3.0 5.0 0.01 0.06 0.02 88 1028.1
20190322111304 49 213 2.0 3.0 0.01 0.06 0.02 88 1028.2
20190322110804 49 225 3.0 7.0 0.01 0.06 0.02 88 1028.2
20190322110304 49 190 3.0 7.0 0.01 0.06 0.02 88 1028.2
20190322104804 49 259 1.0 3.0 0.00 0.06 0.02 89 1028.4
20190322104305 49 202 2.0 3.0 0.00 0.06 0.02 89 1028.4
20190322103804 49 225 3.0 5.0 0.00 0.06 0.02 89 1028.5
20190322103305 49 208 3.0 8.0 0.00 0.06 0.02 89 1028.5
20190322101804 49 220 3.0 5.0 0.00 0.06 0.02 89 1028.5
20190322101304 49 227 1.0 3.0 0.00 0.06 0.02 89 1028.6
20190322100804 49 220 2.0 7.0 0.00 0.06 0.02 88 1028.6
20190322100305 49 211 2.0 7.0 0.00 0.06 0.02 88 1028.6
20190322094804 49 220 5.0 6.0 0.00 0.06 0.02 88 1028.6
20190322094304 49 229 3.0 7.0 0.00 0.06 0.02 88 1028.7
20190322093804 49 204 3.0 5.0 0.00 0.06 0.02 88 1028.6
20190322093304 49 232 3.0 7.0 0.00 0.06 0.02 88 1028.6